EN

Hourly Weather Lagerka

Today, 3 August, Tuesday

Time Temperature Precipitation Wind Pressure Humidity
00:00 +24°C° 0 mm 1 mps 746 mmHg 43%
01:00 +24°C° 0 mm 1 mps 746 mmHg 44%
02:00 +23°C° 0 mm 1 mps 746 mmHg 45%
03:00 +23°C° 0 mm 1 mps 746 mmHg 45%
04:00 +24°C° 0 mm 1 mps 746 mmHg 45%
05:00 +25°C° 0 mm 1 mps 746 mmHg 45%
06:00 +26°C° 0 mm 2 mps 746 mmHg 44%
07:00 +28°C° 0 mm 2 mps 746 mmHg 39%
08:00 +31°C° 0 mm 3 mps 746 mmHg 33%
09:00 +34°C° 0 mm 3 mps 746 mmHg 28%
10:00 +35°C° 0 mm 3 mps 745 mmHg 26%
11:00 +37°C° 0 mm 3 mps 745 mmHg 24%
12:00 +38°C° 0 mm 3 mps 745 mmHg 22%
13:00 +38°C° 0 mm 3 mps 745 mmHg 21%
14:00 +38°C° 0 mm 3 mps 744 mmHg 21%
15:00 +38°C° 0 mm 2 mps 744 mmHg 21%
16:00 +36°C° 0 mm 2 mps 744 mmHg 25%
17:00 +35°C° 0 mm 2 mps 744 mmHg 30%
18:00 +32°C° 0 mm 2 mps 744 mmHg 35%
19:00 +30°C° 0 mm 1 mps 744 mmHg 36%
20:00 +29°C° 0 mm 1 mps 744 mmHg 37%
21:00 +27°C° 0 mm 1 mps 744 mmHg 38%
22:00 +26°C° 0 mm 1 mps 744 mmHg 44%
23:00 +25°C° 0 mm 2 mps 744 mmHg 50%

Tomorrow, 4 August, Wednesday

Time Temperature Precipitation Wind Pressure Humidity
00:00 +23°C° 0 mm 2 mps 744 mmHg 55%
01:00 +23°C° 0 mm 1 mps 744 mmHg 57%
02:00 +23°C° 0 mm 1 mps 744 mmHg 60%
03:00 +20°C° 0 mm 0 mps 744 mmHg 62%
04:00 +21°C° 0 mm 0 mps 745 mmHg 61%
05:00 +24°C° 0 mm 1 mps 745 mmHg 61%
06:00 +25°C° 0 mm 1 mps 745 mmHg 61%
07:00 +26°C° 0 mm 1 mps 745 mmHg 56%
08:00 +28°C° 0 mm 1 mps 745 mmHg 51%
09:00 +29°C° 0 mm 1 mps 745 mmHg 46%
10:00 +31°C° 0 mm 2 mps 745 mmHg 42%
11:00 +32°C° 0 mm 2 mps 745 mmHg 38%
12:00 +34°C° 0 mm 2 mps 745 mmHg 34%
13:00 +34°C° 0 mm 3 mps 745 mmHg 34%
14:00 +35°C° 0 mm 4 mps 745 mmHg 33%
15:00 +35°C° 0 mm 5 mps 745 mmHg 32%
16:00 +32°C° 0.2 mm 5 mps 745 mmHg 44%
17:00 +28°C° 0.2 mm 5 mps 745 mmHg 56%
18:00 +26°C° 0.2 mm 5 mps 745 mmHg 68%
19:00 +23°C° 0 mm 4 mps 745 mmHg 74%
20:00 +22°C° 0 mm 4 mps 745 mmHg 80%
21:00 +20°C° 0 mm 3 mps 746 mmHg 87%
22:00 +19°C° 0 mm 2 mps 746 mmHg 89%
23:00 +18°C° 0 mm 2 mps 746 mmHg 91%

Day after tomorrow, 5 August, Thursday

Time Temperature Precipitation Wind Pressure Humidity
00:00 +18°C° 0 mm 1 mps 746 mmHg 94%
01:00 +18°C° 0 mm 1 mps 746 mmHg 94%
02:00 +18°C° 0 mm 1 mps 746 mmHg 94%
03:00 +16°C° 0 mm 2 mps 746 mmHg 94%
04:00 +17°C° 0 mm 2 mps 746 mmHg 89%
05:00 +18°C° 0 mm 2 mps 747 mmHg 84%
06:00 +19°C° 0 mm 2 mps 747 mmHg 79%
07:00 +21°C° 0 mm 3 mps 747 mmHg 70%
08:00 +24°C° 0 mm 3 mps 747 mmHg 60%
09:00 +26°C° 0 mm 3 mps 747 mmHg 51%
10:00 +27°C° 0 mm 3 mps 747 mmHg 46%
11:00 +28°C° 0 mm 3 mps 747 mmHg 41%
12:00 +29°C° 0 mm 3 mps 747 mmHg 36%
13:00 +28°C° 0 mm 3 mps 747 mmHg 39%
14:00 +27°C° 0 mm 3 mps 747 mmHg 41%
15:00 +26°C° 0 mm 3 mps 747 mmHg 44%
16:00 +25°C° 0.3 mm 3 mps 747 mmHg 54%
17:00 +23°C° 0.3 mm 2 mps 747 mmHg 64%
18:00 +20°C° 0.3 mm 2 mps 747 mmHg 74%
19:00 +19°C° 0.1 mm 2 mps 748 mmHg 76%
20:00 +18°C° 0.1 mm 2 mps 748 mmHg 78%
21:00 +17°C° 0.1 mm 2 mps 748 mmHg 80%
22:00 +17°C° 0 mm 2 mps 748 mmHg 80%
23:00 +16°C° 0 mm 2 mps 748 mmHg 80%

6 August, Friday

Time Temperature Precipitation Wind Pressure Humidity
00:00 +16°C° 0 mm 1 mps 748 mmHg 81%
01:00 +16°C° 0 mm 1 mps 748 mmHg 83%
02:00 +15°C° 0 mm 1 mps 748 mmHg 85%
03:00 +15°C° 0 mm 1 mps 748 mmHg 86%
04:00 +16°C° 0 mm 2 mps 749 mmHg 83%
05:00 +17°C° 0 mm 2 mps 749 mmHg 80%
06:00 +17°C° 0 mm 2 mps 749 mmHg 77%
07:00 +20°C° 0 mm 2 mps 749 mmHg 67%
08:00 +23°C° 0 mm 2 mps 749 mmHg 58%
09:00 +25°C° 0 mm 3 mps 749 mmHg 48%
10:00 +26°C° 0 mm 3 mps 749 mmHg 42%
11:00 +27°C° 0 mm 3 mps 749 mmHg 37%
12:00 +28°C° 0 mm 3 mps 749 mmHg 32%
13:00 +28°C° 0 mm 3 mps 749 mmHg 31%
14:00 +28°C° 0 mm 3 mps 749 mmHg 30%
15:00 +29°C° 0 mm 3 mps 748 mmHg 30%
16:00 +28°C° 0 mm 3 mps 748 mmHg 32%
17:00 +27°C° 0 mm 3 mps 749 mmHg 35%
18:00 +26°C° 0 mm 3 mps 749 mmHg 38%
19:00 +24°C° 0 mm 3 mps 749 mmHg 45%
20:00 +21°C° 0 mm 3 mps 749 mmHg 52%
21:00 +18°C° 0 mm 3 mps 749 mmHg 60%
22:00 +18°C° 0 mm 2 mps 749 mmHg 62%
23:00 +17°C° 0 mm 2 mps 749 mmHg 65%

7 August, Saturday

Time Temperature Precipitation Wind Pressure Humidity
00:00 +18°C° 0 mm 1 mps 749 mmHg 68%
01:00 +16°C° 0 mm 1 mps 749 mmHg 70%
02:00 +16°C° 0 mm 1 mps 750 mmHg 71%
03:00 +15°C° 0 mm 1 mps 750 mmHg 73%
04:00 +18°C° 0 mm 1 mps 750 mmHg 69%
05:00 +19°C° 0 mm 1 mps 750 mmHg 64%
06:00 +20°C° 0 mm 1 mps 751 mmHg 60%
07:00 +21°C° 0 mm 2 mps 751 mmHg 53%
08:00 +23°C° 0 mm 2 mps 751 mmHg 47%
09:00 +25°C° 0 mm 3 mps 751 mmHg 40%
10:00 +26°C° 0 mm 3 mps 751 mmHg 38%
11:00 +26°C° 0 mm 3 mps 751 mmHg 37%
12:00 +27°C° 0 mm 3 mps 751 mmHg 35%
13:00 +26°C° 0 mm 3 mps 751 mmHg 35%
14:00 +26°C° 0 mm 3 mps 751 mmHg 36%
15:00 +26°C° 0 mm 3 mps 751 mmHg 37%
16:00 +25°C° 0 mm 3 mps 751 mmHg 39%
17:00 +24°C° 0 mm 3 mps 751 mmHg 42%
18:00 +23°C° 0 mm 2 mps 751 mmHg 44%
19:00 +21°C° 0 mm 2 mps 751 mmHg 46%
20:00 +20°C° 0 mm 2 mps 751 mmHg 49%
21:00 +19°C° 0 mm 2 mps 751 mmHg 51%
22:00 +18°C° 0 mm 2 mps 751 mmHg 53%
23:00 +17°C° 0 mm 2 mps 751 mmHg 55%

8 August, Sunday

Time Temperature Precipitation Wind Pressure Humidity
00:00 +16°C° 0 mm 2 mps 751 mmHg 56%
01:00 +16°C° 0 mm 2 mps 752 mmHg 57%
02:00 +15°C° 0 mm 2 mps 752 mmHg 57%
03:00 +15°C° 0 mm 2 mps 752 mmHg 57%
04:00 +16°C° 0 mm 2 mps 753 mmHg 54%
05:00 +18°C° 0 mm 1 mps 753 mmHg 51%
06:00 +19°C° 0 mm 1 mps 753 mmHg 48%
07:00 +20°C° 0 mm 2 mps 753 mmHg 44%
08:00 +23°C° 0 mm 2 mps 753 mmHg 40%
09:00 +24°C° 0 mm 3 mps 753 mmHg 35%
10:00 +26°C° 0 mm 3 mps 753 mmHg 33%
11:00 +27°C° 0 mm 3 mps 753 mmHg 31%
12:00 +28°C° 0 mm 3 mps 752 mmHg 29%
13:00 +28°C° 0 mm 3 mps 752 mmHg 28%
14:00 +29°C° 0 mm 3 mps 752 mmHg 28%
15:00 +29°C° 0 mm 3 mps 752 mmHg 28%
16:00 +29°C° 0 mm 3 mps 752 mmHg 30%
17:00 +28°C° 0 mm 3 mps 752 mmHg 33%
18:00 +27°C° 0 mm 3 mps 752 mmHg 36%
19:00 +25°C° 0 mm 2 mps 752 mmHg 38%
20:00 +23°C° 0 mm 2 mps 752 mmHg 40%
21:00 +20°C° 0 mm 2 mps 752 mmHg 41%
22:00 +20°C° 0 mm 2 mps 752 mmHg 40%
23:00 +19°C° 0 mm 2 mps 752 mmHg 38%
Show more